This demonstration page uses our WeatherBlox Daily Observations layout. Learn more.

Left ArrowRight Arrow

Hourly Observations for September 23, 2019

Temp ( °F °C ) Dew Point ( °F °C ) Humidity (%) Winds ( mph kmh ) Pressure ( in mb ) Visibility ( mi km ) Precip ( " mm )
12:51 am 00:51 Partly Cloudy 80 26.7 58 14.4 47 47 NE 3 6 29.84 1010 10 16 0.00 0.00
1:51 am 01:51 Mostly Cloudy 78 25.6 60 15.6 54 54 E 7 11 29.84 1011 10 16 0.00 0.00
2:51 am 02:51 Mostly Cloudy 78 25.6 60 15.6 54 54 ENE 5 7 29.84 1010 10 16 0.00 0.00
3:51 am 03:51 Partly Cloudy 77 25 50 10 39 39 Calm 29.84 1011 10 16 0.00 0.00
4:51 am 04:51 Partly Cloudy 73 22.8 57 13.9 57 57 ENE 6 9 29.86 1011 10 16 0.00 0.00
5:51 am 05:51 Mostly Cloudy 74 23.3 61 16.1 64 64 E 8 13 29.88 1012 10 16 0.00 0.00
6:51 am 06:51 Cloudy 76 24.4 62 16.7 62 62 ENE 6 9 29.89 1012 10 16 0.00 0.00
7:51 am 07:51 Partly Cloudy 77 25 62 16.7 60 60 ESE 7 11 29.91 1013 10 16 0.00 0.00
8:51 am 08:51 Sunny 82 27.8 62 16.7 51 51 E 7 11 29.91 1013 10 16 0.00 0.00
9:51 am 09:51 Sunny 83 28.3 59 15 44 44 VRB 3 6 29.91 1013 10 16 0.00 0.00
10:51 am 10:51 Mostly Sunny 85 29.4 58 14.4 40 40 VRB 3 6 29.89 1012 10 16 0.00 0.00
11:51 am 11:51 Mostly Cloudy 89 31.7 56 13.3 33 33 ESE 7 11 29.86 1011 10 16 0.00 0.00
12:51 pm 12:51 Sunny 90 32.2 55 12.8 31 31 SSW 10 17 29.82 1010 10 16 0.00 0.00
1:51 pm 13:51 Sunny 92 33.3 53 11.7 27 27 SSW 10 17 29.78 1009 10 16 0.00 0.00
2:51 pm 14:51 Sunny 93 33.9 51 10.6 24 24 VRB 5 7 29.76 1008 10 16 0.00 0.00
3:51 pm 15:51 Sunny 93 33.9 52 11.1 25 25 WSW 7 11 29.75 1007 10 16 0.00 0.00
4:51 pm 16:51 Sunny 92 33.3 51 10.6 25 25 W 9 15 29.75 1008 10 16 0.00 0.00
5:51 pm 17:51 Mostly Sunny 81 27.2 61 16.1 51 51 NW 33 54 29.79 1009 7 11 0.00 0.00
6:51 pm 18:51 Clear 74 23.3 58 14.4 57 57 W 26 43 29.84 1011 10 16 0.00 0.00
6:58 pm 18:58 Mostly Clear 73 22.8 58 14.4 59 59 W 25 41 29.82 1010 10 16 0.00 0.00
7:51 pm 19:51 Partly Cloudy 72 22.2 53 11.7 52 52 WNW 17 28 29.86 1011 10 16 0.00 0.00
8:51 pm 20:51 Clear 72 22.2 52 11.1 50 50 NW 13 20 29.87 1012 10 16 0.00 0.00
9:51 pm 21:51 Cloudy with Light Rain 71 21.7 55 12.8 57 57 N 6 9 29.88 1012 10 16 0.00 0.00
10:51 pm 22:51 Cloudy with Light Rain 68 20 55 12.8 63 63 WNW 16 26 29.93 1014 10 16 0.00 0.00
11:51 pm 23:51 Clear 64 17.8 56 13.3 75 75 W 13 20 29.91 1013 10 16 0.00 0.00

Powered by AerisWeather